Regional Weather Roundup
Issued by NWS

Home | Current Version | Previous Version | Graphics & Text | Print | Product List | Glossary On
Versions: 1 2 3 4 5 6 7 8 9 10 11 12 13 14 15 16 17 18 19 20 21 22 23 24 25 26 27 28 29 30 31 32 33 34 35 36 37 38 39 40 41 42 43 44 45 46 47 48 49 50
000
ASUS43 KLSX 272359
RWRMO

WEATHER SUMMARY FOR MISSOURI
NATIONAL WEATHER SERVICE SPRINGFIELD MO
600 PM CST SAT DEC 27 2014

NOTE: "FAIR" INDICATES FEW OR NO CLOUDS BELOW 12,000 FEET WITH NO
       SIGNIFICANT WEATHER AND/OR OBSTRUCTIONS TO VISIBILITY.
       CURRENT SKY AND/OR WEATHER CONDITIONS ARE NOT AVAILABLE FOR
       CHILLICOTHE AND FARMINGTON.

MOZ001>031-035>038-043-044-053-054-280100-
...NORTHERN AND WESTERN MISSOURI...

CITY           SKY/WX    TMP DP  RH WIND       PRES   REMARKS
KANSAS CTY INT PTCLDY    27  20  75 NW6       30.25S WCI  20
6HR MIN TEMP:  27; 6HR MAX TEMP:  32;

KANSAS C DTWN  CLEAR     31  20  63 NW5       30.26S WCI  26
6HR MIN TEMP:  30; 6HR MAX TEMP:  34;

LEE`S SUMMIT   PTCLDY    28  19  69 NW7       30.25R WCI  21
6HR MIN TEMP:  28; 6HR MAX TEMP:  33;

ST JOSEPH      PTCLDY    24  18  77 NW6       30.28R WCI  17
6HR MIN TEMP:  23; 6HR MAX TEMP:  31;

CHILLICOTHE      N/A     30  22  72 W9        30.26S WCI  22
6HR MIN TEMP:  30; 6HR MAX TEMP:  33;

KIRKSVILLE     CLOUDY    30  23  75 NW13      30.22R WCI  20
6HR MIN TEMP:  30; 6HR MAX TEMP:  33;


$$
MOZ066>068-077>081-088>096-101>105-280100-
...SOUTHWEST MISSOURI...

CITY           SKY/WX    TMP DP  RH WIND       PRES   REMARKS
SPRINGFIELD    CLOUDY    31  28  89 NW10      30.22R WCI  22
6HR MIN TEMP:  31; 6HR MAX TEMP:  35; 6HR PCP:  0.06;

JOPLIN         PTCLDY    30  25  81 NW6       30.26S WCI  24
6HR MIN TEMP:  30; 6HR MAX TEMP:  32; 6HR PCP:  0.05;


$$
MOZ032>034-039>042-045>050-055>058-069>072-280100-
...CENTRAL MISSOURI...

CITY           SKY/WX    TMP DP  RH WIND       PRES   REMARKS
COLUMBIA       CLOUDY    33  28  81 NW8       30.22R WCI  26
6HR MIN TEMP:  33; 6HR MAX TEMP:  35; 6HR PCP:  0.03;

JEFFERSON CITY CLOUDY    34  28  79 NW9       30.24R WCI  27
6HR MIN TEMP:  34; 6HR MAX TEMP:  37; 6HR PCP:  0.06;

ROLLA          CLOUDY    32  30  92 NW7       30.19R WCI  26
6HR MIN TEMP:  32; 6HR MAX TEMP:  37; 6HR PCP:  0.07;

SEDALIA        CLOUDY    33  25  72 NW8       30.24R WCI  26
6HR MIN TEMP:  33; 6HR MAX TEMP:  36;

OSAGE BEACH    CLOUDY    34  30  86 W3        30.22S

$$
MOZ051-052-059>065-280100-
...EAST CENTRAL MISSOURI...

CITY           SKY/WX    TMP DP  RH WIND       PRES   REMARKS
ST LOUIS INTL  LGTSLEET  36  32  85 W6        30.18F FOG
6HR MIN TEMP:  36; 6HR MAX TEMP:  43; 6HR PCP:  0.12;

SPIRIT OF STL  CLOUDY    34  32  92 W7        30.20S WCI  28
6HR MIN TEMP:  34; 6HR MAX TEMP:  41; 6HR PCP:  0.11;

ST CHARLES     MIX PCPN  35  33  92 W8        30.19S WCI  29
6HR MIN TEMP:  35; 6HR MAX TEMP:  41; 6HR PCP:  0.12;


$$
MOZ072>076-082>087-097>100-106>115-280100-
...SOUTH CENTRAL AND SOUTHEAST MISSOURI...

CITY           SKY/WX    TMP DP  RH WIND       PRES   REMARKS
CAPE GIRARDEAU CLOUDY    43  40  89 N13       30.17R
6HR MIN TEMP:  43; 6HR MAX TEMP:  50; 6HR PCP:  0.04;

POPLAR BLUFF   LGT RAIN  45  41  86 N8        30.14R FOG
6HR MIN TEMP:  45; 6HR MAX TEMP:  52; 6HR PCP:  0.05;

WEST PLAINS    LGT RAIN  36  33  89 N6        30.17S
6HR MIN TEMP:  36; 6HR MAX TEMP:  40; 6HR PCP:  0.26;


$$


USA.gov is the U.S. government's official web portal to all federal, state and local government web resources and services.